This is the latest recevied weather packets stored in our database for station/object KK7PZE-13. If no packets are shown the sender has not sent any weather packets the latest 10 day(s).
| Time | Temp. | Humidity | Pressure | Rain* | Wind** | Luminosity | Snow |
|---|---|---|---|---|---|---|---|
| 1788155089 | 72° F | 89% | 760.4 mmHg | 0.05 in | - | - | - |
| 1788154779 | 72° F | 88% | 760.7 mmHg | 0.05 in | - | - | - |
| 1788154469 | 74° F | 83% | 760.4 mmHg | 0 in | - | - | - |
| 1788154159 | 78° F | 67% | 760.5 mmHg | 0 in | - | - | - |
| 1788153849 | 79° F | 66% | 759.4 mmHg | 0 in | - | - | - |
| 1788153539 | 83° F | 61% | 759.2 mmHg | 0 in | - | - | - |
| 1788153228 | 86° F | 49% | 759 mmHg | 0 in | - | - | - |
| 1788152918 | 88° F | 45% | 758.9 mmHg | 0 in | - | - | - |
| 1788152608 | 89° F | 41% | 758.8 mmHg | 0 in | - | - | - |
| 1788152298 | 90° F | 40% | 758.7 mmHg | 0 in | - | - | - |
| 1788151988 | 90° F | 37% | 758.8 mmHg | 0 in | - | - | - |
| 1788151678 | 90° F | 37% | 758.8 mmHg | 0 in | - | - | - |
| 1788151368 | 90° F | 37% | 758.8 mmHg | 0 in | - | - | - |
| 1788151058 | 90° F | 37% | 758.7 mmHg | 0 in | - | - | - |
| 1788150748 | 90° F | 37% | 758.8 mmHg | 0 in | - | - | - |
| 1788150438 | 90° F | 36% | 758.7 mmHg | 0 in | - | - | - |
| 1788150128 | 90° F | 36% | 758.8 mmHg | 0 in | - | - | - |
| 1788149818 | 90° F | 36% | 758.5 mmHg | 0 in | - | - | - |
| 1788149508 | 90° F | 36% | 758.7 mmHg | 0 in | - | - | - |
| 1788149198 | 91° F | 36% | 758.7 mmHg | 0 in | - | - | - |
| 1788148888 | 91° F | 35% | 758.8 mmHg | 0 in | - | - | - |
| 1788148578 | 91° F | 35% | 758.7 mmHg | 0 in | - | - | - |
| 1788148268 | 91° F | 35% | 758.7 mmHg | 0 in | - | - | - |
| 1788147958 | 92° F | 34% | 758.6 mmHg | 0 in | - | - | - |
| 1788147648 | 92° F | 34% | 758.5 mmHg | 0 in | - | - | - |
* Rain latest hour (hover to see other rain measurements)
** Current wind speed in m/s (hover to see current wind gust speed)